GSAT0215 (GALILEO 19) (43055 NORAD) Tracking and Keplerian Element Data

This shows tracking and keplerian element data for the satellite.

Feedback or suggestion? Click here.




ElementValue
Catalog43055
NameGSAT0215 (GALILEO 19)
Epoch Orbit3546
Epoch Day236.32247788
Epoch Year2023
RAAN249.8015
Inclination55.4919
Eccentricity0.0003769
Argument of Perigee267.4808
Mean Anonmoly92.5182
Mean Motion1.70474215
Decay Rate7.3E-07
L11 43055U 17079A 23236.32247788 .00000073 00000+0 00000+0 0 9996
L22 43055 55.4919 249.8015 0003769 267.4808 92.5182 1.70474215 35467



Live tracking and technical data element details for GSAT0215 (GALILEO 19) (NORAD 43055). GSAT0215 (GALILEO 19) can be tracked NOW for your location showing map with azimuth and elevation plus other details from your city location.







IsCatalogInMostPopularTable: catalog: 43055, numindb: 829
Update: records affected: 1



GetName: 43055 GSAT0215 (GALILEO 19)

Hit Count: updated at: Mon, 04 Dec 2023 09:43:21 GMT